When you browse on this site, cookies collect data to enhance your experience and personalize the content and advertising you see.
Visit our Privacy Policy to learn more. By continuing to use the site, you agree to this use of cookies and data.
  • In Latvia
  • List of Countries
  • For 7 days
  • Water Temperature
  • Satellite Maps
  • Weather Map
  • Weather Widgets
  • user-avatar
    Login

    Hourly Weather Houston

    Today, 18 July, Thursday

    Time Temperature Precipitation Wind Pressure Humidity
    00:00 +30°C° 0 mm 4 mps 761 mmHg 80%
    01:00 +30°C° 0 mm 3 mps 761 mmHg 80%
    02:00 +30°C° 0 mm 3 mps 761 mmHg 81%
    03:00 +29°C° 0 mm 3 mps 760 mmHg 81%
    04:00 +29°C° 0 mm 3 mps 760 mmHg 80%
    05:00 +29°C° 0 mm 2 mps 761 mmHg 80%
    06:00 +29°C° 0 mm 2 mps 761 mmHg 79%
    07:00 +30°C° 0 mm 2 mps 761 mmHg 75%
    08:00 +31°C° 0 mm 2 mps 761 mmHg 70%
    09:00 +33°C° 0 mm 3 mps 761 mmHg 66%
    10:00 +34°C° 0 mm 3 mps 761 mmHg 61%
    11:00 +35°C° 0 mm 3 mps 761 mmHg 57%
    12:00 +36°C° 0 mm 4 mps 761 mmHg 53%
    13:00 +36°C° 0 mm 4 mps 760 mmHg 51%
    14:00 +37°C° 0 mm 4 mps 760 mmHg 50%
    15:00 +37°C° 0 mm 5 mps 759 mmHg 49%
    16:00 +36°C° 0 mm 5 mps 759 mmHg 53%
    17:00 +35°C° 0 mm 5 mps 759 mmHg 57%
    18:00 +35°C° 0 mm 5 mps 759 mmHg 61%
    19:00 +34°C° 0 mm 5 mps 759 mmHg 65%
    20:00 +32°C° 0 mm 4 mps 759 mmHg 70%
    21:00 +30°C° 0 mm 4 mps 760 mmHg 74%
    22:00 +30°C° 0 mm 4 mps 760 mmHg 75%
    23:00 +30°C° 0 mm 4 mps 760 mmHg 76%

    Tomorrow, 19 July, Friday

    Time Temperature Precipitation Wind Pressure Humidity
    00:00 +29°C° 0 mm 3 mps 760 mmHg 77%
    01:00 +29°C° 0 mm 3 mps 759 mmHg 78%
    02:00 +29°C° 0 mm 3 mps 759 mmHg 79%
    03:00 +29°C° 0 mm 3 mps 759 mmHg 80%
    04:00 +29°C° 0 mm 3 mps 759 mmHg 80%
    05:00 +29°C° 0 mm 3 mps 759 mmHg 81%
    06:00 +29°C° 0 mm 2 mps 759 mmHg 81%
    07:00 +30°C° 0 mm 3 mps 760 mmHg 75%
    08:00 +31°C° 0 mm 3 mps 760 mmHg 70%
    09:00 +33°C° 0 mm 3 mps 761 mmHg 64%
    10:00 +35°C° 0 mm 3 mps 761 mmHg 59%
    11:00 +36°C° 0 mm 4 mps 760 mmHg 54%
    12:00 +37°C° 0 mm 4 mps 760 mmHg 48%
    13:00 +37°C° 0 mm 4 mps 760 mmHg 49%
    14:00 +37°C° 0 mm 5 mps 760 mmHg 49%
    15:00 +37°C° 0 mm 5 mps 759 mmHg 50%
    16:00 +36°C° 0 mm 5 mps 759 mmHg 54%
    17:00 +35°C° 0 mm 5 mps 759 mmHg 58%
    18:00 +34°C° 0 mm 5 mps 759 mmHg 62%
    19:00 +34°C° 0 mm 5 mps 759 mmHg 66%
    20:00 +33°C° 0 mm 4 mps 759 mmHg 70%
    21:00 +32°C° 0 mm 4 mps 759 mmHg 75%
    22:00 +30°C° 0 mm 4 mps 759 mmHg 75%
    23:00 +30°C° 0 mm 4 mps 759 mmHg 76%

    Day after tomorrow, 20 July, Saturday

    Time Temperature Precipitation Wind Pressure Humidity
    00:00 +30°C° 0 mm 3 mps 759 mmHg 77%
    01:00 +29°C° 0 mm 3 mps 759 mmHg 78%
    02:00 +29°C° 0 mm 3 mps 759 mmHg 78%
    03:00 +29°C° 0 mm 3 mps 759 mmHg 78%
    04:00 +29°C° 0 mm 2 mps 759 mmHg 79%
    05:00 +29°C° 0 mm 2 mps 759 mmHg 79%
    06:00 +29°C° 0 mm 1 mps 759 mmHg 80%
    07:00 +30°C° 0 mm 2 mps 760 mmHg 74%
    08:00 +31°C° 0 mm 2 mps 760 mmHg 69%
    09:00 +34°C° 0 mm 2 mps 760 mmHg 64%
    10:00 +35°C° 0 mm 3 mps 760 mmHg 60%
    11:00 +36°C° 0 mm 3 mps 760 mmHg 56%
    12:00 +37°C° 0 mm 4 mps 759 mmHg 51%
    13:00 +37°C° 0.1 mm 4 mps 759 mmHg 52%
    14:00 +37°C° 0.1 mm 5 mps 759 mmHg 52%
    15:00 +37°C° 0.1 mm 5 mps 758 mmHg 52%
    16:00 +36°C° 0 mm 5 mps 758 mmHg 55%
    17:00 +35°C° 0 mm 5 mps 758 mmHg 59%
    18:00 +34°C° 0 mm 5 mps 758 mmHg 63%
    19:00 +33°C° 0 mm 5 mps 759 mmHg 66%
    20:00 +32°C° 0 mm 4 mps 759 mmHg 69%
    21:00 +32°C° 0 mm 4 mps 759 mmHg 72%
    22:00 +30°C° 0 mm 4 mps 759 mmHg 73%
    23:00 +30°C° 0 mm 3 mps 759 mmHg 75%

    21 July, Sunday

    Time Temperature Precipitation Wind Pressure Humidity
    00:00 +30°C° 0 mm 3 mps 759 mmHg 76%
    01:00 +29°C° 0 mm 3 mps 759 mmHg 77%
    02:00 +29°C° 0 mm 3 mps 758 mmHg 78%
    03:00 +29°C° 0 mm 3 mps 758 mmHg 79%
    04:00 +29°C° 0 mm 2 mps 759 mmHg 79%
    05:00 +29°C° 0 mm 2 mps 759 mmHg 79%
    06:00 +29°C° 0 mm 1 mps 760 mmHg 80%
    07:00 +30°C° 0 mm 1 mps 760 mmHg 73%
    08:00 +31°C° 0 mm 1 mps 760 mmHg 66%
    09:00 +32°C° 0 mm 2 mps 761 mmHg 59%
    10:00 +34°C° 0 mm 2 mps 761 mmHg 55%
    11:00 +35°C° 0 mm 2 mps 760 mmHg 50%
    12:00 +36°C° 0 mm 2 mps 760 mmHg 45%
    13:00 +36°C° 0 mm 3 mps 760 mmHg 46%
    14:00 +36°C° 0 mm 3 mps 760 mmHg 47%
    15:00 +37°C° 0 mm 4 mps 759 mmHg 47%
    16:00 +36°C° 0 mm 4 mps 759 mmHg 52%
    17:00 +35°C° 0 mm 4 mps 759 mmHg 57%
    18:00 +34°C° 0 mm 4 mps 759 mmHg 61%
    19:00 +33°C° 0 mm 4 mps 759 mmHg 64%
    20:00 +31°C° 0 mm 3 mps 759 mmHg 66%
    21:00 +31°C° 0 mm 3 mps 760 mmHg 69%
    22:00 +30°C° 0 mm 3 mps 760 mmHg 70%
    23:00 +30°C° 0 mm 2 mps 760 mmHg 71%

    22 July, Monday

    Time Temperature Precipitation Wind Pressure Humidity
    00:00 +29°C° 0 mm 2 mps 760 mmHg 73%
    01:00 +29°C° 0 mm 2 mps 760 mmHg 73%
    02:00 +29°C° 0 mm 2 mps 760 mmHg 74%
    03:00 +29°C° 0 mm 2 mps 760 mmHg 74%
    04:00 +29°C° 0 mm 2 mps 760 mmHg 75%
    05:00 +29°C° 0 mm 2 mps 760 mmHg 76%
    06:00 +29°C° 0 mm 2 mps 760 mmHg 77%
    07:00 +29°C° 0 mm 2 mps 761 mmHg 74%
    08:00 +30°C° 0 mm 1 mps 761 mmHg 71%
    09:00 +31°C° 0 mm 1 mps 761 mmHg 67%
    10:00 +32°C° 0 mm 2 mps 761 mmHg 59%
    11:00 +35°C° 0 mm 2 mps 761 mmHg 52%
    12:00 +36°C° 0 mm 2 mps 761 mmHg 44%
    13:00 +37°C° 0 mm 2 mps 760 mmHg 43%
    14:00 +37°C° 0 mm 2 mps 760 mmHg 41%
    15:00 +38°C° 0 mm 2 mps 759 mmHg 40%
    16:00 +36°C° 0.1 mm 3 mps 759 mmHg 45%
    17:00 +35°C° 0.1 mm 3 mps 759 mmHg 50%
    18:00 +34°C° 0.1 mm 4 mps 759 mmHg 55%
    19:00 +33°C° 0 mm 4 mps 759 mmHg 59%
    20:00 +33°C° 0 mm 3 mps 759 mmHg 62%
    21:00 +31°C° 0 mm 3 mps 759 mmHg 65%
    22:00 +31°C° 0 mm 3 mps 759 mmHg 66%
    23:00 +30°C° 0 mm 2 mps 759 mmHg 68%

    23 July, Tuesday

    Time Temperature Precipitation Wind Pressure Humidity
    00:00 +30°C° 0 mm 2 mps 759 mmHg 69%
    01:00 +29°C° 1.7 mm 2 mps 759 mmHg 72%
    02:00 +29°C° 1.7 mm 2 mps 759 mmHg 75%
    03:00 +28°C° 1.7 mm 3 mps 759 mmHg 77%
    04:00 +28°C° 2.9 mm 3 mps 759 mmHg 78%
    05:00 +28°C° 2.9 mm 2 mps 760 mmHg 79%
    06:00 +27°C° 2.9 mm 2 mps 760 mmHg 80%
    07:00 +28°C° 0.9 mm 3 mps 760 mmHg 76%
    08:00 +29°C° 0.9 mm 3 mps 760 mmHg 72%
    09:00 +30°C° 0.9 mm 3 mps 761 mmHg 69%
    10:00 +31°C° 0.4 mm 3 mps 761 mmHg 65%
    11:00 +33°C° 0.4 mm 3 mps 761 mmHg 62%
    12:00 +33°C° 0.4 mm 4 mps 760 mmHg 59%
    13:00 +33°C° 1.5 mm 3 mps 760 mmHg 59%
    14:00 +33°C° 1.5 mm 3 mps 759 mmHg 58%
    15:00 +34°C° 1.5 mm 3 mps 759 mmHg 58%
    16:00 +33°C° 0.9 mm 3 mps 759 mmHg 59%
    17:00 +33°C° 0.9 mm 3 mps 759 mmHg 60%
    18:00 +31°C° 0.9 mm 3 mps 759 mmHg 61%
    19:00 +31°C° 0 mm 3 mps 759 mmHg 63%
    20:00 +30°C° 0 mm 3 mps 759 mmHg 65%
    21:00 +29°C° 0 mm 4 mps 760 mmHg 66%
    22:00 +29°C° 0 mm 4 mps 760 mmHg 68%
    23:00 +28°C° 0 mm 4 mps 760 mmHg 69%
    Show more